Simultaneous Nadir Overpasses (SNOs) Predictions

Prediction of SNOs between GOES-16 and NOAA-20 Satellite Orbit:

Table of predicted SNOs for the next 14.0 days since TLE Epoch: 5/13/2023
Index Date Time (GOES-16) GOES-16 Lat,Lon NOAA-20 Lat,Lon Distance(km) Time Diff (sec)
1 05/13/2023 06:24:21 -0.02, -75.19 -0.09, -74.99 23.81 80
2 05/15/2023 18:27:33 0.02, -75.21 -0.08, -75.75 61.38 80
3 05/16/2023 18:11:27 0.02, -75.22 0.89, -71.21 456.47 80
4 05/18/2023 06:33:16 -0.02, -75.24 0.25, -76.48 141.91 80
5 05/19/2023 06:11:51 -0.02, -75.25 -0.78, -71.95 376.02 80
6 05/20/2023 18:33:47 0.02, -75.27 -0.40, -77.25 225.48 80
7 05/21/2023 18:17:42 0.02, -75.28 0.57, -72.71 292.86 80
8 05/23/2023 06:39:29 -0.01, -75.31 0.61, -77.97 304.48 80
9 05/24/2023 06:18:05 -0.01, -75.33 -0.42, -73.44 214.16 80
10 05/25/2023 18:40:01 0.01, -75.36 -0.75, -78.75 386.24 80
11 05/26/2023 18:23:57 0.00, -75.38 0.29, -74.22 133.03 80
